Flag for France Weather past 2 weeks in Saint-Étienne, France

Now
37 °F

Clear.


Feels Like: 37 °F
Forecast: 44 / 62 °F
Wind: No wind

Location: St-Etienne Boutheon

Current Time: Apr 19, 2015 at 6:55:40 AM

Latest Report: Apr 19, 2015 at 6:30 AM


Visibility: 10 mi

Pressure: 29.95 "Hg

Humidity: 93%

Dew point: 36 °F

Location of Saint-ÉtienneLocation

Historic Weather in Saint-Étienne — Graph

°F

Saint-Étienne temperature yesterday

Maximum temperature yesterday: 64 °F (at 5:00 PM)
Minimum temperature yesterday: 48 °F (at 8:00 AM)
Average temperature yesterday: 55 °F

Past Weeks' High & Low Weather Summary

 TemperatureHumidityPressure
High81 °F (Apr 15, 3:00 PM)100% (Apr 4, 6:30 AM)30.48 "Hg (Apr 4, 6:30 AM)
Low27 °F (Apr 7, 7:00 AM)14% (Apr 9, 4:30 PM)29.89 "Hg (Apr 4, 6:30 PM)
Average53 °F57%30.21 "Hg
* Reported Apr 4 6:30 AM — Apr 19 6:00 AM, Saint-Étienne, Weather by CustomWeather, © 2015

Note: Actual official high and low records may vary slightly from our data, if they occured in-between our weather recording intervals... More about our weather records

Advertising

Saint-Étienne weather history for previous 24 hours

 ConditionsComfort  
Time TempWeatherWind HumidityBarometerVisibility
6:00 AM
Sun, Apr 19
39 °FClear.No wind87%29.95 "Hg10 mi
5:30 AM39 °FClear.No wind87%29.95 "HgN/A
5:00 AM39 °FClear.No wind87%29.95 "HgN/A
4:30 AM39 °FClear.No wind87%29.95 "Hg6 mi
4:00 AM39 °FClear.No wind87%29.95 "HgN/A
3:30 AM41 °FClear.No wind81%29.98 "HgN/A
3:00 AM41 °FClear.No wind87%29.98 "HgN/A
2:30 AM43 °FClear.No wind81%29.98 "HgN/A
2:00 AM43 °FClear.2 mph81%29.98 "HgN/A
1:30 AM45 °FClear.2 mph76%29.98 "HgN/A
1:00 AM46 °FClear.1 mph71%29.98 "HgN/A
12:30 AM48 °FClear.6 mph71%29.98 "HgN/A
12:00 AM48 °FClear.5 mph71%29.98 "HgN/A
11:30 PM
Sat, Apr 18
50 °FPassing clouds.6 mph71%29.98 "HgN/A
11:00 PM52 °FPassing clouds.5 mph72%29.98 "HgN/A
10:30 PM54 °FClear.7 mph58%29.98 "HgN/A
10:00 PM55 °FPartly cloudy.8 mph59%29.98 "HgN/A
9:30 PM57 °FOvercast.7 mph55%29.98 "HgN/A
9:00 PM57 °FMore clouds than sun.6 mph59%29.98 "HgN/A
8:30 PM57 °FPassing clouds.6 mph63%29.98 "HgN/A
8:00 PM57 °FPassing clouds.9 mph63%29.95 "HgN/A
7:30 PM59 °FBroken clouds.9 mph59%29.95 "HgN/A
7:00 PM61 °FClear.13 mph55%29.95 "HgN/A
6:30 PM61 °FClear.13 mph55%29.95 "HgN/A
6:00 PM63 °FScattered clouds.13 mph49%29.95 "HgN/A
5:30 PM63 °FScattered clouds.14 mph52%29.98 "HgN/A
5:00 PM64 °FScattered clouds.13 mph52%29.98 "HgN/A
4:30 PM63 °FScattered clouds.12 mph52%29.98 "HgN/A
4:00 PM63 °FPartly sunny.10 mph56%29.98 "HgN/A
3:30 PM61 °FScattered clouds.6 mph63%29.98 "HgN/A
3:00 PM61 °FScattered clouds.8 mph68%29.98 "HgN/A
2:30 PM61 °FScattered clouds.9 mph68%30.01 "HgN/A
2:00 PM59 °FScattered clouds.9 mph72%30.01 "HgN/A
1:30 PM57 °FBroken clouds.7 mph72%30.04 "HgN/A
1:00 PM57 °FPartly sunny.No wind72%30.04 "HgN/A
12:30 PM55 °FPartly sunny.3 mph82%30.04 "HgN/A
12:00 PM54 °FPartly sunny.3 mph88%30.04 "HgN/A
11:30 AM54 °FPartly sunny.5 mph88%30.04 "HgN/A
11:00 AM54 °FLight rain. Partly sunny.6 mph88%30.04 "Hg6 mi
10:30 AM52 °FOvercast.6 mph94%30.04 "Hg6 mi
10:00 AM52 °FOvercast.3 mph94%30.04 "Hg5 mi
9:30 AM52 °FOvercast.2 mph88%30.04 "HgN/A
9:00 AM52 °FPartly sunny.3 mph88%30.04 "HgN/A
8:30 AM50 °FPartly sunny.3 mph94%30.04 "Hg6 mi
8:00 AM48 °FScattered clouds.No wind94%30.04 "Hg5 mi
7:30 AM50 °FFog.No wind94%30.01 "Hg5 mi
7:00 AM50 °FPassing clouds.2 mph94%30.01 "Hg5 mi
6:30 AM52 °FPassing clouds.1 mph88%30.04 "HgN/A
6:00 AM52 °FPassing clouds.2 mph94%30.04 "Hg5 mi
Weather by CustomWeather, © 2015

See weather overviewHow to use our weather pages